Hourly Data Report for January 05, 2004

All times are specified in Local Standard Time (LST). Add 1 hour to adjust for Daylight Saving Time where and when it is observed.

SHERBROOKE A
QUEBEC

45°26'00.000" N
71°41'00.000" W
241.40 m
7028124
71610
YSC

Download Data

Hourly Data (January 2004)
Hourly Data Report for January 5, 2004
TIME Temp Definition
°C
Dew Point Definition
°C
Rel Hum Definition
%
Wind Dir Definition
10's deg

Wind Spd Definition
km/h
Visibility Definition
km
Stn Press Definition
kPa
Hmdx Definition


Wind Chill Definition


Weather Definition


00:00 -7.1 -11.8 69 33 6 15.0 98.87   -10  
01:00 -7.4 -11.6 72   0 15.0 98.84      
02:00 -7.6 -12.2 70 33 4 15.0 98.84   -10  
03:00 -7.8 -12.0 72 30 6 15.0 98.88   -11  
04:00 -8.1 -12.2 72 32 7 15.0 98.89   -12  
05:00 -8.5 -12.5 73 30 6 15.0 98.89   -12  
06:00 -8.8 -12.6 74   0 15.0 98.83      
07:00 -9.2 -13.0 74 6 6 15.0 98.83   -13  
08:00 -9.2 -13.0 74 4 6 15.0 98.85   -13  
09:00 -9.1 -12.8 74 4 7 24.1 98.82   -13 Cloudy
10:00 -8.6 -12.6 73 5 6 24.1 98.78   -12 Cloudy
11:00 -8.1 -12.4 71 4 9 24.1 98.68   -13 Cloudy
12:00 -7.1 -11.9 69 5 7 24.1 98.51   -11 Cloudy
13:00 -6.6 -11.7 67 6 13 24.1 98.36   -12 Cloudy
14:00 -5.8 -11.8 63 3 9 24.1 98.32   -10 Cloudy
15:00 -5.1 -11.5 61 4 9 24.1 98.25   -9 Cloudy
16:00 -5.1 -11.5 61 4 9 19.3 98.23   -9 Snow
17:00 -5.3 -11.2 63 5 11 19.3 98.21   -10 Snow
18:00 -5.6 -10.4 69 7 7 8.0 98.14   -9 Snow
19:00 -5.8 -9.8 73 5 9 6.4 98.13   -10 Snow
20:00 -6.2 -8.9 81 6 9 2.9 98.08   -10 Snow
21:00 -6.2 -8.5 84 6 9 4.8 98.00   -10 Snow
22:00 -6.2 -8.3 85 7 9 4.8 97.92   -10 Snow
23:00 -6.2 -8.2 86 8 7 4.8 97.88   -10 Snow

Notes on Data Quality.

Legend

  • E = Estimated
  • M = Missing
  • NA = Not Available
Date modified: